[[{"header":{"parameterUnit":"m.s-1","parameterCategory":1,"la1":30.2991,"la2":30.254,"lo1":-89.0895,"lo2":-89.0444,"dy":0.0017,"dx":0.0017,"nx":28,"ny":28,"refTime":"2024-06-12T03:00:00:Z","depth":0,"parameterNumber":2,"parameterNumberName":"U-component_of_WINDS"},"data":[0,0,0,0,0,0,0,0,0,0,0,0,0,0,0,0,0,0,0,0,0,0,0,0,0,0,0,0,0,0,0,0,0,0,0,0,0,0,0,0,0,0,0,0,0,0,0,0,0,0,0,0,0,0,0,0,0,0,-2.4145,-2.4145,0,-2.4158,-2.4158,-2.4158,-2.4041,-2.4038,-2.4035,-2.4032,-2.4047,-2.405,-2.4054,0,0,0,0,0,0,0,0,0,0,0,0,0,-2.402,-2.4023,-2.4145,-2.4145,-2.4145,-2.4158,-2.4158,-2.4158,-2.4042,-2.4038,-2.4034,-2.403,-2.4046,-2.405,-2.4054,0,0,0,0,0,0,0,0,0,0,0,0,0,-2.4058,-2.4024,-2.4145,-2.4089,-2.4084,-2.4158,-2.4158,-2.4159,-2.4043,-2.4038,-2.4033,-2.4028,-2.4045,-2.405,-2.4055,-2.4184,0,0,-2.4071,-2.4073,0,0,0,0,0,0,0,0,-2.4056,-2.4063,-2.4097,-2.4093,-2.4087,-2.4093,-2.412,-2.4167,-2.4044,-2.4058,-2.4032,-2.4026,-2.4067,-2.407,-2.4083,-2.4185,-2.4186,-2.4071,-2.4074,-2.4076,-2.4078,0,0,0,0,0,0,0,-2.4053,-2.4061,-2.415,-2.4097,-2.4092,-2.4063,-2.4063,-2.4128,-2.409,-2.4057,-2.4048,-2.4051,-2.4063,-2.4078,-2.4082,-2.4186,-2.4071,-2.4075,-2.4079,-2.4081,-2.4395,-2.44,0,0,0,0,0,0,-2.4058,-2.406,-2.415,-2.4151,-2.4059,-2.4069,-2.4069,-2.4096,-2.4089,-2.4083,-2.4056,-2.4046,-2.4072,-2.4076,-2.4082,-2.4234,-2.4076,-2.4081,-2.4084,-2.439,-2.4396,-2.4402,0,0,0,0,0,0,-2.4056,-2.4067,-2.4149,-2.4103,-2.4111,-2.4077,-2.4108,-2.4099,-2.4114,-2.4088,-2.408,-2.4078,-2.4068,-2.4075,-2.416,-2.4233,-2.4083,-2.4088,-2.4383,-2.4392,-2.4399,-2.4539,0,0,0,0,0,0,-2.4053,-2.4067,-2.4116,-2.4105,-2.4114,-2.4227,-2.4112,-2.4103,-2.4123,-2.4111,-2.4107,-2.4102,-2.4065,-2.4153,-2.4165,-2.4237,-2.4092,-2.4377,-2.4387,-2.4396,-2.4527,-2.455,-2.457,0,0,0,0,0,-2.4049,-2.4155,-2.4119,-2.4131,-2.4174,-2.4231,-2.4236,-2.4191,-2.4129,-2.4178,-2.4161,-2.4102,-2.4222,-2.4162,-2.4175,-2.425,-2.4372,-2.4384,-2.4396,-2.4518,-2.4546,-2.4569,0,0,0,0,0,0,-2.4177,-2.4153,-2.4112,-2.4218,-2.4228,-2.4211,-2.4272,-2.4222,-2.425,-2.4237,-2.418,-2.418,-2.4275,-2.427,-2.4204,-2.4375,-2.4286,-2.4301,-2.4375,-2.4401,-2.4422,-2.4422,-2.4096,0,0,0,0,0,-2.4217,-2.4265,-2.4241,-2.4337,-2.4344,-2.4307,-2.433,-2.4294,-2.4302,-2.4305,-2.4294,-2.4305,-2.4344,-2.4372,-2.4407,-2.4525,-2.4523,-2.4583,-2.4604,-2.4622,-2.4636,-2.4699,-2.4725,-2.444,-2.444,-2.444,0,0,-2.4302,-2.4294,-2.4328,-2.4363,-2.4365,-2.4417,-2.4311,-2.437,-2.4407,-2.4314,-2.4394,-2.4386,-2.4393,-2.4495,-2.454,-2.4495,-2.4714,-2.4637,-2.4651,-2.4656,-2.4714,-2.4741,-2.4765,-2.4449,-2.4447,-2.4446,0,0,-2.4482,-2.4481,-2.456,-2.4565,-2.4571,-2.4545,-2.4565,-2.4556,-2.4547,-2.4625,-2.4556,-2.46,-2.467,-2.4678,-2.4691,-2.4873,-2.482,-2.4886,-2.4999,-2.506,-2.5082,-2.5102,-2.5168,-2.5192,-2.49,-2.4901,-2.4901,0,-2.4586,-2.466,-2.4608,-2.4671,-2.4689,-2.4605,-2.4686,-2.4693,-2.4711,-2.4725,-2.4674,-2.4759,-2.4758,-2.4861,-2.4906,-2.4919,-2.494,-2.4888,-2.5083,-2.5102,-2.512,-2.5182,-2.5207,-2.4909,-2.4908,-2.4907,-2.4906,0,-2.4789,-2.4841,-2.4905,-2.4923,-2.4947,-2.5019,-2.4978,-2.5009,-2.4971,-2.4951,-2.5032,-2.5027,-2.5061,-2.5082,-2.5045,-2.518,-2.5152,-2.5093,-2.5003,-2.5156,-2.5214,-2.5237,-2.492,-2.4917,-2.4915,-2.4913,0,0,-2.5053,-2.504,-2.5064,-2.5071,-2.507,-2.511,-2.5178,-2.5209,-2.5237,-2.5251,-2.5307,-2.5368,-2.5313,-2.5328,-2.5292,-2.5345,-2.5491,-2.528,-2.5279,-2.5321,-2.564,-2.5686,-2.5714,-2.5454,-2.5459,-2.5462,-2.564,0,-2.5229,-2.5345,-2.5299,-2.5418,-2.5466,-2.5387,-2.5446,-2.5452,-2.5435,-2.5473,-2.5454,-2.5498,-2.5422,-2.5431,-2.548,-2.5463,-2.5555,-2.5449,-2.5507,-2.551,-2.551,-2.5744,-2.5793,-2.5961,-2.5662,-2.5666,-2.5668,0,-2.5452,-2.5474,-2.5599,-2.5589,-2.5607,-2.5661,-2.5686,-2.5723,-2.5728,-2.5712,-2.5729,-2.568,-2.5746,-2.5655,-2.5745,-2.5674,-2.5695,-2.569,-2.5695,-2.5701,-2.56,-2.5758,-2.6013,-2.604,-2.5703,-2.57,-2.5698,0,-2.5634,-2.5695,-2.5777,-2.5785,-2.5776,-2.5815,-2.5813,-2.5813,-2.5835,-2.5857,-2.5871,-2.59,-2.5917,-2.5941,-2.5901,-2.5838,-2.5998,-2.5903,-2.5987,-2.5988,-2.6026,-2.6025,-2.6291,-2.6037,-2.6036,-2.6036,-2.6035,0,-2.5837,-2.5917,-2.5858,-2.5909,-2.5996,-2.5942,-2.6029,-2.6018,-2.6019,-2.6066,-2.5998,-2.6045,-2.5988,-2.6029,-2.5998,-2.6079,-2.6086,-2.6076,-2.6067,-2.6083,-2.6085,-2.6097,-2.6085,-2.6042,-2.6041,-2.604,-2.6038,0,-2.6056,-2.602,-2.6104,-2.6088,-2.6085,-2.615,-2.6136,-2.6183,-2.616,-2.6221,-2.6232,-2.6197,-2.6241,-2.6203,-2.6246,-2.6225,-2.6333,-2.6306,-2.6331,-2.6325,-2.6411,-2.6405,-2.6697,-2.6732,-2.6454,-2.6457,-2.6459,0,-2.6189,-2.6248,-2.6238,-2.6265,-2.6267,-2.631,-2.6332,-2.6281,-2.6306,-2.6316,-2.6361,-2.64,-2.6428,-2.6502,-2.6481,-2.6514,-2.6489,-2.6588,-2.6493,-2.6508,-2.6492,-2.649,-2.6496,-2.6609,-2.6612,-2.6615,-2.6617,0,-2.643,-2.6409,-2.6443,-2.6471,-2.6498,-2.6517,-2.6531,-2.6557,-2.6504,-2.6536,-2.6581,-2.6603,-2.6646,-2.6685,-2.671,-2.6708,-2.6655,-2.6647,-2.6668,-2.6686,-2.6699,-2.6695,-2.6386,-2.6641,-2.6638,-2.6637,-2.6635,-2.6634,-2.6611,-2.666,-2.6661,-2.67,-2.6705,-2.672,-2.6762,-2.6745,-2.678,-2.6812,-2.6779,-2.6833,-2.6835,-2.6864,-2.6868,-2.6909,-2.6868,-2.6899,-2.6907,-2.6916,-2.6929,-2.6691,-2.6914,-2.6913,-2.6912,-2.6911,-2.6911,0,-2.685,-2.6846,-2.6883,-2.6904,-2.6936,-2.6881,-2.6893,-2.6923,-2.6971,-2.6978,-2.7007,-2.7058,-2.7095,-2.7076,-2.7109,-2.7146,-2.7122,-2.7156,-2.7154,-2.7155,-2.6964,-2.6943,-2.7175,-2.7175,-2.7175,-2.7175,-2.7175,-2.7175,-2.6978,-2.7058,-2.7037,-2.7119,-2.7114,-2.7166,-2.7178,-2.7191,-2.7196,-2.7256,-2.7287,-2.7273,-2.727,-2.7301,-2.7333,-2.7327,-2.7343,-2.7386,-2.7371,-2.7194,-2.7168,-2.7143,-2.7123,-2.739,-2.739,-2.7559,-2.756,-2.7561]},{"header":{"parameterUnit":"m.s-1","parameterCategory":1,"la1":30.2991,"la2":30.254,"lo1":-89.0895,"lo2":-89.0444,"dy":0.0017,"dx":0.0017,"nx":28,"ny":28,"refTime":"2024-06-12T03:00:00:Z","depth":0,"parameterNumber":3,"parameterNumberName":"V-component_of_WINDS"},"data":[0,0,0,0,0,0,0,0,0,0,0,0,0,0,0,0,0,0,0,0,0,0,0,0,0,0,0,0,0,0,0,0,0,0,0,0,0,0,0,0,0,0,0,0,0,0,0,0,0,0,0,0,0,0,0,0,0,0,-4.036,-4.036,0,-4.0402,-4.0403,-4.0403,-4.0349,-4.0347,-4.0345,-4.0343,-4.0383,-4.0386,-4.0389,0,0,0,0,0,0,0,0,0,0,0,0,0,-4.0226,-4.0229,-4.036,-4.036,-4.0361,-4.0402,-4.0403,-4.0404,-4.0349,-4.0347,-4.0344,-4.0342,-4.0382,-4.0386,-4.0389,0,0,0,0,0,0,0,0,0,0,0,0,0,-4.0278,-4.023,-4.0359,-4.0339,-4.0337,-4.0402,-4.0403,-4.0404,-4.035,-4.0347,-4.0344,-4.0341,-4.0381,-4.0385,-4.039,-4.0476,0,0,-4.0403,-4.0405,0,0,0,0,0,0,0,0,-4.0275,-4.0283,-4.0341,-4.034,-4.0339,-4.0367,-4.037,-4.0428,-4.0351,-4.0345,-4.0343,-4.034,-4.038,-4.0384,-4.0399,-4.0478,-4.0479,-4.0403,-4.0406,-4.0408,-4.0409,0,0,0,0,0,0,0,-4.0272,-4.0281,-4.0376,-4.0342,-4.0341,-4.0326,-4.033,-4.0381,-4.0378,-4.0345,-4.0341,-4.0347,-4.0379,-4.0395,-4.0399,-4.048,-4.0403,-4.0407,-4.041,-4.0411,-4.063,-4.0633,0,0,0,0,0,0,-4.0271,-4.0278,-4.0375,-4.0378,-4.0299,-4.0331,-4.0335,-4.0361,-4.0378,-4.0378,-4.035,-4.0345,-4.0389,-4.0394,-4.04,-4.0501,-4.0408,-4.0412,-4.0414,-4.0627,-4.0631,-4.0634,0,0,0,0,0,0,-4.0268,-4.028,-4.0373,-4.0327,-4.0338,-4.0336,-4.0366,-4.0364,-4.0379,-4.0381,-4.038,-4.0367,-4.0386,-4.0394,-4.0457,-4.0502,-4.0414,-4.0418,-4.0623,-4.0628,-4.0633,-4.0705,0,0,0,0,0,0,-4.0265,-4.028,-4.0313,-4.0328,-4.034,-4.0431,-4.0368,-4.0367,-4.0388,-4.0381,-4.0397,-4.0397,-4.0385,-4.0451,-4.0462,-4.0507,-4.0421,-4.0619,-4.0625,-4.0631,-4.0699,-4.0712,-4.0723,0,0,0,0,0,-4.026,-4.0332,-4.0316,-4.0327,-4.0383,-4.0434,-4.0441,-4.0427,-4.0391,-4.0425,-4.0426,-4.0396,-4.0496,-4.0458,-4.0469,-4.0516,-4.0616,-4.0624,-4.0631,-4.0693,-4.0709,-4.0723,0,0,0,0,0,0,-4.0321,-4.0333,-4.0315,-4.0394,-4.0414,-4.0425,-4.0466,-4.0444,-4.0473,-4.0466,-4.0446,-4.045,-4.0517,-4.0523,-4.0481,-4.06,-4.055,-4.056,-4.0594,-4.0609,-4.0621,-4.0617,-4.0425,0,0,0,0,0,-4.0344,-4.0386,-4.0393,-4.0462,-4.0473,-4.0468,-4.049,-4.0477,-4.0496,-4.0503,-4.0509,-4.0527,-4.0562,-4.0586,-4.0619,-4.0699,-4.0701,-4.0737,-4.0749,-4.0759,-4.0768,-4.081,-4.0825,-4.0658,-4.0658,-4.0658,0,0,-4.0391,-4.0402,-4.043,-4.0474,-4.0488,-4.053,-4.0475,-4.0522,-4.0553,-4.051,-4.057,-4.0575,-4.0594,-4.0666,-4.0698,-4.0673,-4.0814,-4.0768,-4.0776,-4.0779,-4.0819,-4.0834,-4.0848,-4.0663,-4.0662,-4.0661,0,0,-4.0498,-4.0512,-4.057,-4.0585,-4.0606,-4.0603,-4.0617,-4.0631,-4.0633,-4.0694,-4.0662,-4.0697,-4.0759,-4.0773,-4.0789,-4.0901,-4.0874,-4.0912,-4.0975,-4.1016,-4.1029,-4.1041,-4.108,-4.1094,-4.092,-4.0921,-4.0921,0,-4.0553,-4.0617,-4.0602,-4.0652,-4.0671,-4.0636,-4.0693,-4.0708,-4.0739,-4.0753,-4.0725,-4.08,-4.0811,-4.0885,-4.0913,-4.0927,-4.0941,-4.091,-4.1029,-4.104,-4.1051,-4.1088,-4.1102,-4.0925,-4.0924,-4.0924,-4.0924,0,-4.0683,-4.0728,-4.0772,-4.0804,-4.0828,-4.0882,-4.0873,-4.09,-4.0885,-4.0884,-4.0945,-4.0956,-4.099,-4.1007,-4.0992,-4.1079,-4.1063,-4.1032,-4.0981,-4.1071,-4.1106,-4.112,-4.0931,-4.093,-4.0928,-4.0927,0,0,-4.0829,-4.0852,-4.0869,-4.0882,-4.0903,-4.0937,-4.0988,-4.1022,-4.1045,-4.1067,-4.1108,-4.1161,-4.1133,-4.115,-4.1137,-4.1173,-4.126,-4.1138,-4.1138,-4.1159,-4.1355,-4.1377,-4.1394,-4.1243,-4.1246,-4.1248,-4.1353,0,-4.0935,-4.1026,-4.1013,-4.1099,-4.1139,-4.1106,-4.115,-4.1167,-4.1167,-4.12,-4.1199,-4.1237,-4.1197,-4.1208,-4.1242,-4.1242,-4.1299,-4.1235,-4.128,-4.1281,-4.1275,-4.1412,-4.1435,-4.1534,-4.1366,-4.1368,-4.137,0,-4.1072,-4.11,-4.119,-4.1205,-4.1221,-4.1261,-4.1291,-4.1323,-4.1341,-4.1339,-4.1358,-4.1339,-4.1388,-4.1337,-4.1404,-4.1361,-4.1378,-4.1381,-4.1384,-4.1387,-4.1331,-4.1417,-4.1565,-4.158,-4.1391,-4.1389,-4.1388,0,-4.1168,-4.1229,-4.129,-4.1303,-4.1321,-4.135,-4.1359,-4.1374,-4.1395,-4.1421,-4.1434,-4.1465,-4.1481,-4.1505,-4.1493,-4.1458,-4.1562,-4.151,-4.156,-4.156,-4.1583,-4.1581,-4.1735,-4.1596,-4.1596,-4.1595,-4.1595,0,-4.1288,-4.1344,-4.1334,-4.1371,-4.1433,-4.1418,-4.1478,-4.1483,-4.1496,-4.1533,-4.1506,-4.1541,-4.1524,-4.1557,-4.1548,-4.1604,-4.1612,-4.161,-4.1607,-4.1612,-4.1612,-4.1623,-4.1615,-4.1599,-4.1598,-4.1598,-4.1597,0,-4.1405,-4.1401,-4.1466,-4.1478,-4.1483,-4.1527,-4.1537,-4.1571,-4.157,-4.1616,-4.1626,-4.1623,-4.1661,-4.1652,-4.1692,-4.1686,-4.1757,-4.1745,-4.1751,-4.1748,-4.1798,-4.1793,-4.1962,-4.1983,-4.1832,-4.1833,-4.1835,0,-4.1481,-4.1524,-4.1541,-4.1565,-4.1576,-4.1614,-4.1635,-4.1622,-4.1645,-4.1668,-4.17,-4.1735,-4.1763,-4.1824,-4.1824,-4.1855,-4.1843,-4.1901,-4.1848,-4.1851,-4.1843,-4.184,-4.1844,-4.1911,-4.1913,-4.1914,-4.1915,0,-4.1617,-4.1612,-4.1645,-4.1678,-4.1705,-4.1729,-4.175,-4.1771,-4.1759,-4.1786,-4.1825,-4.1846,-4.1888,-4.1923,-4.1951,-4.1958,-4.1935,-4.1932,-4.1945,-4.195,-4.1951,-4.195,-4.1779,-4.1928,-4.1927,-4.1926,-4.1925,-4.1925,-4.1715,-4.1751,-4.1769,-4.1806,-4.1821,-4.1842,-4.1875,-4.1877,-4.191,-4.1944,-4.1933,-4.1977,-4.1993,-4.2028,-4.2039,-4.2072,-4.205,-4.2069,-4.2074,-4.2078,-4.2084,-4.1947,-4.2077,-4.2077,-4.2077,-4.2076,-4.2076,0,-4.1848,-4.1858,-4.1893,-4.1924,-4.1953,-4.193,-4.1952,-4.1977,-4.2017,-4.2034,-4.2062,-4.2106,-4.2139,-4.2143,-4.2174,-4.22,-4.2189,-4.2208,-4.2205,-4.2207,-4.2102,-4.2088,-4.2216,-4.2216,-4.2216,-4.2216,-4.2216,-4.2216,-4.192,-4.198,-4.1978,-4.2043,-4.2052,-4.2096,-4.2111,-4.2129,-4.2143,-4.2193,-4.2222,-4.2224,-4.2235,-4.2267,-4.2296,-4.2296,-4.2308,-4.2331,-4.2327,-4.2229,-4.2215,-4.2201,-4.2187,-4.2334,-4.2334,-4.2429,-4.2429,-4.243]}]]